Biloxi, MS

8:46 PM CDT on March 30, 2017 (GMT -0500)
Keesler Air Force Base

Weather History for KBIX - July, 2012

Change the Weather History Date:

Sunday, July 1, 2012

  Actual Average Record
Temperature  
Mean Temperature 86 °F -  
Max Temperature 93 °F 90 °F 99 °F (1980)
Min Temperature 78 °F 74 °F 68 °F (1972)
Cooling Degree Days 20    
Growing Degree Days 36 (Base 50)    
Moisture  
Dew Point 76 °F    
Average Humidity 75    
Maximum Humidity 94    
Minimum Humidity 47    
Precipitation  
Precipitation 0.00 in - - ()
Sea Level Pressure  
Sea Level Pressure 30.02 in    
Wind  
Wind Speed 7 mph (West)    
Max Wind Speed 15 mph    
Max Gust Speed -    
Visibility 10 miles    
Events      
Averages and records for this station are not official NWS values.
T = Trace of Precipitation, MM = Missing Value Source: NWS Daily Summary

Daily Weather History Graph

Daily Weather History Graph

Search for Another Location

Airport or City:

Trip Planner

Search our weather history database for the weather conditions in past years. The results will help you decide how hot, cold, wet, or windy it might be!

Date:

Astronomy

Jul. 01, 2012 Rise Set
Actual Time 5:57 AM CDT 8:01 PM CDT
Civil Twilight 5:29 AM CDT 8:29 PM CDT
Nautical Twilight 4:56 AM CDT 9:02 PM CDT
Astronomical Twilight 4:20 AM CDT 9:38 PM CDT
Moon 6:06 PM CDT (7/1) 3:42 AM CDT (7/1)
Length of Visible Light 14h 59m
Length of Day
14h 04m
Waxing Gibbous, 94% of the Moon is Illuminated
Jul 1
Waxing Gibbous
Jul 3
Full
Jul 10
Last Quarter
Jul 18
New
Jul 26
First Quarter

Hourly Weather History & Observations

Time (CDT) Temp. Heat Index Dew Point Humidity Pressure Visibility Wind Dir Wind Speed Gust Speed Precip Events Conditions
12:55 AM 83.1 °F 90.7 °F 75.4 °F 77% 29.97 in 10.0 mi SW 8.1 mph - N/A   Clear
1:55 AM 82.6 °F 89.9 °F 75.4 °F 79% 29.96 in 10.0 mi WSW 6.9 mph - N/A   Clear
2:55 AM 80.2 °F 86.1 °F 76.8 °F 89% 29.96 in 10.0 mi NNW 3.5 mph - N/A   Partly Cloudy
3:55 AM 79.0 °F - 76.3 °F 91% 29.97 in 10.0 mi NW 3.5 mph - N/A   Clear
4:55 AM 79.0 °F - 76.5 °F 92% 29.99 in 10.0 mi Calm Calm - N/A   Partly Cloudy
5:55 AM 78.4 °F - 76.3 °F 93% 30.01 in 10.0 mi NW 3.5 mph - N/A   Partly Cloudy
6:15 AM 78.8 °F - 77.0 °F 94% 30.02 in 10.0 mi WNW 4.6 mph - N/A   Mostly Cloudy
6:21 AM 78.8 °F - 77.0 °F 94% 30.02 in 10.0 mi WNW 4.6 mph - N/A   Scattered Clouds
6:29 AM 78.8 °F - 77.0 °F 94% 30.02 in 10.0 mi WNW 4.6 mph - N/A   Mostly Cloudy
6:35 AM 78.8 °F - 77.0 °F 94% 30.02 in 10.0 mi NW 4.6 mph - N/A   Scattered Clouds
6:55 AM 80.1 °F 85.8 °F 76.8 °F 90% 30.03 in 10.0 mi NW 3.5 mph - N/A   Partly Cloudy
7:55 AM 84.2 °F 94.1 °F 77.2 °F 79% 30.05 in 10.0 mi NW 6.9 mph - N/A   Clear
8:55 AM 86.0 °F 97.3 °F 77.2 °F 75% 30.06 in 10.0 mi Variable 5.8 mph - N/A   Clear
9:55 AM 88.0 °F 99.1 °F 76.3 °F 68% 30.07 in 10.0 mi Variable 4.6 mph - N/A   Clear
10:55 AM 90.1 °F 100.6 °F 75.2 °F 61% 30.08 in 10.0 mi Variable 5.8 mph - N/A   Partly Cloudy
11:55 AM 90.7 °F 101.9 °F 75.7 °F 61% 30.08 in 10.0 mi SW 10.4 mph - N/A   Mostly Cloudy
12:55 PM 91.9 °F 103.2 °F 75.2 °F 58% 30.07 in 10.0 mi SSW 11.5 mph - N/A   Scattered Clouds
1:55 PM 90.7 °F 100.1 °F 74.1 °F 58% 30.06 in 10.0 mi SSW 11.5 mph - N/A   Scattered Clouds
2:55 PM 93.0 °F 101.3 °F 72.3 °F 51% 30.04 in 10.0 mi SW 12.7 mph - N/A   Clear
3:55 PM 93.7 °F 100.5 °F 70.9 °F 47% 30.03 in 10.0 mi SW 13.8 mph - N/A   Clear
4:55 PM 91.0 °F 101.6 °F 74.7 °F 59% 30.02 in 10.0 mi SSW 12.7 mph - N/A   Clear
5:55 PM 88.7 °F 100.4 °F 76.5 °F 67% 30.01 in 10.0 mi SW 11.5 mph - N/A   Clear
6:55 PM 88.2 °F 99.5 °F 76.3 °F 68% 30.00 in 10.0 mi SW 13.8 mph - N/A   Clear
7:55 PM 86.9 °F 98.3 °F 77.0 °F 72% 30.00 in 10.0 mi SW 15.0 mph - N/A   Clear
8:55 PM 86.2 °F 97.4 °F 77.2 °F 74% 30.01 in 10.0 mi WSW 8.1 mph - N/A   Clear
9:55 PM 85.8 °F 95.9 °F 76.3 °F 73% 30.02 in 10.0 mi WSW 6.9 mph - N/A   Clear